Regional Weather Roundup
Issued by NWS

Home | Current Version | Previous Version | Graphics & Text | Print | Product List | Glossary On
Versions: 1 2 3 4 5 6 7 8 9 10 11 12 13 14 15 16 17 18 19 20 21 22 23 24 25 26 27 28 29 30 31 32 33 34 35 36 37 38 39 40 41 42 43 44 45 46 47 48 49 50
000
ASUS45 KPSR 300110
RWRAZ

ARIZONA HOURLY REGIONAL WEATHER ROUNDUP
NATIONAL WEATHER SERVICE PHOENIX AZ
600 PM MST SAT AUG 29 2015

NOTE: FAIR INDICATES FEW OR NO CLOUDS BELOW 12,000 FEET WITH NO
SIGNIFICANT WEATHER AND/OR OBSTRUCTIONS TO VISIBILITY.

AZZ001>003-036-300200-
NORTHWEST ARIZONA

CITY           SKY/WX    TMP DP  RH WIND       PRES   REMARKS
BULLHEAD CITY  SUNNY    109  46  12 S15G21    29.68F HX 105
KINGMAN        PTSUNNY   92  55  28 SE24G35   29.97R
$$

AZZ004>008-015-016-018-300200-
NORTH CENTRAL ARIZONA

CITY           SKY/WX    TMP DP  RH WIND       PRES   REMARKS
GRAND CANYON   PTSUNNY   76  48  37 S6        30.27S
WILLIAMS       PTSUNNY   77  45  31 W6        30.32S
PRESCOTT       CLOUDY    77  57  50 S9        30.13F
FLAGSTAFF      PTSUNNY   72  48  42 W5        30.31R
PAYSON         PTSUNNY   81  54  39 E5        30.15S
PAGE           SUNNY     96  36  12 NE7       29.98F
$$

AZZ009>014-017-300200-
NORTHEAST ARIZONA

CITY           SKY/WX    TMP DP  RH WIND       PRES   REMARKS
WINSLOW        MOSUNNY   89  44  20 SW10      30.09S
SAINT JOHNS    MOCLDY    82  48  30 NE13      30.18S
WINDOW ROCK    MOCLDY    78  42  27 NW7       30.26R
SHOW LOW       PTCLDY    75  41  29 S15       30.25S
$$

AZZ023-300200-
GREATER PHOENIX AREA

CITY           SKY/WX    TMP DP  RH WIND       PRES   REMARKS
PHOENIX        PTSUNNY  108  54  16 W5        29.73F HX 106
BUCKEYE        MOSUNNY  104  59  22 SW7       29.74S HX 104
GLENDALE       MOSUNNY  109  54  16 S7        29.75F HX 108
LUKE AFB       MOSUNNY  107  56  18 SW8       29.73S HX 106
DEER VALLEY    MOSUNNY  106  52  16 SW10      29.77S HX 103
SCOTTSDALE     MOSUNNY  107  50  15 SW8       29.78F HX 104
MESA-FALCON    MOSUNNY  108  54  16 S6        29.76S HX 106
MESA-GATEWAY   PTSUNNY  106  54  17 NW5       29.79S HX 104
CHANDLER       PTSUNNY  108  55  18 SW12      29.76S HX 106
$$

AZZ027-028-300200-
SOUTHWEST MARICOPA COUNTY AND PINAL COUNTY

CITY           SKY/WX    TMP DP  RH WIND       PRES   REMARKS
CASA GRANDE    MOSUNNY  106  54  17 W5        29.78S HX 104
GILA BEND      FAIR     105  57  21 SW10      29.74R HX 104
$$

AZZ503-504-507>509-300200-
SOUTHEAST ARIZONA

CITY           SKY/WX    TMP DP  RH WIND       PRES   REMARKS
TUCSON         LGT RAIN  89  62  40 S14       29.97R
DAVIS-MONTHAN  MOCLDY    84  66  54 E8        29.96R
RYAN FIELD     PTSUNNY   86  61  42 NW22G28   29.95R
NOGALES        CLOUDY    87  56  34 E8        30.03F
SIERRA VISTA   CLOUDY    80  53  39 SW9       30.11F
DOUGLAS          N/A    N/A N/A N/A MISG      30.06F
SAFFORD        CLOUDY    87  55  33 SE18      29.99R
$$

AZZ020-021-025-026-031-300200-
SOUTHWEST ARIZONA

CITY           SKY/WX    TMP DP  RH WIND       PRES   REMARKS
YUMA           MOSUNNY  111  59  18 S12       29.69R HX 112
$$

CAZ031-033-041-043-047-048-061-300200-
SOUTHERN CALIFORNIA

CITY           SKY/WX    TMP DP  RH WIND       PRES   REMARKS
DOWNTOWN L.A.  SUNNY     84  65  52 VRB3      29.82F
L.A. AIRPORT   MOSUNNY   78  66  66 W13       29.83F
SAN DIEGO      MOSUNNY   83  66  56 W8        29.85F
BURBANK        SUNNY     93  56  28 S8        29.83F
ONTARIO        MOSUNNY   95  58  28 W10G22    29.84S
RIVERSIDE      SUNNY     95  55  26 W15G22    29.83S
PALM SPRINGS   MOSUNNY  110  48  12 NW18G28   29.71S HX 106
EL CENTRO NAS  SUNNY    111  57  17 SE9       29.65F HX 111
IMPERIAL       MOSUNNY  113  56  15 SE10      29.64S HX 112
BLYTHE         SUNNY    111  51  13 SW15      29.68S HX 108
NEEDLES        MOSUNNY  111  45  11 W14       29.70F HX 106
$$

NVZ020-UTZ003-300200-
SOUTHERN NEVADA-UTAH

CITY           SKY/WX    TMP DP  RH WIND       PRES   REMARKS
LAS VEGAS      MOSUNNY  103  41  12 SW15      29.76S
SALT LAKE CITY PTSUNNY   94  40  15 S14       29.88F
$$

NMZ009-TXZ055-300200-
NEW MEXICO-WEST TEXAS

CITY           SKY/WX    TMP DP  RH WIND       PRES   REMARKS
ALBUQUERQUE    PTCLDY    83  42  23 E16       30.18S
EL PASO        PTCLDY    89  54  30 SE10      30.05S
$$


........................KEY........................
SKY/WX - SKY CONDITION/WEATHER
TMP    - TEMPERATURE IN FAHRENHEIT
DP     - DEW POINT IN FAHRENHEIT
RH     - RELATIVE HUMIDITY IN PERCENT
WIND   - DIRECTION AND SPEED IN MILES PER HOUR (MPH)
VRB    - VARIABLE WIND DIRECTION
PRES   - MEAN SEA LEVEL PRESSURE IN INCHES OF MERCURY
         F - FALLING PRESSURE   R - RISING PRESSURE
         S - STEADY PRESSURE
VSB    - VISIBILITY IN MILES
HX     - HEAT INDEX IN FAHRENHEIT
WCI    - WIND CHILL INDEX IN FAHRENHEIT
TC     - TEMPERATURE IN CELSIUS WHICH IS ALSO KNOWN AS
         TEMPERATURE IN CENTIGRADE
AFB    - AIR FORCE BASE
         LUKE AFB IS LUKE AIR FORCE BASE
         DAVIS-MONTHAN IS DAVIS-MONTHAN AIR FORCE BASE
NAS    - NAVAL AIR STATION
         EL CENTRO NAS IS EL CENTRO NAVAL AIR STATION
N/A    - NOT AVAILABLE



USA.gov is the U.S. government's official web portal to all federal, state and local government web resources and services.